Weather Roundup
Issued by NWS Corpus Christi, TX

Home | Current Version | Previous Version | Text Only | Print | Product List | Glossary On
Versions: 1 2 3 4 5 6 7 8 9 10 11 12 13 14 15 16 17 18 19 20 21 22 23 24 25 26 27 28 29 30 31 32 33 34 35 36 37 38 39 40 41 42 43 44 45 46 47 48 49 50
000
ASUS44 KCRP 280010
HRRCRP

SOUTH TEXAS REGIONAL WEATHER ROUNDUP
NATIONAL WEATHER SERVICE CORPUS CHRISTI TX
700 PM CDT SAT AUG 27 2016


TXZ229>244-280100-
...CORPUS CHRISTI AREA OBSERVATIONS...

CITY           SKY/WX    TMP DP  RH WIND       PRES   REMARKS
CORPUS CHRISTI MOSUNNY   89  74  60 E12       29.88R HX  98
NAS CORPUS CHR SUNNY     87  75  67 E12       29.88  HX  96
ROCKPORT       SUNNY     87  74  64 E9        29.88R HX  95
ALICE          CLOUDY    89  72  56 E9        29.87R HX  96
FALFURRIAS     SUNNY     90  71  52 E9        29.88R HX  96
$$

...VICTORIA AREA OBSERVATIONS...

CITY           SKY/WX    TMP DP  RH WIND       PRES   REMARKS
VICTORIA       MOSUNNY   85  73  67 NE7       29.90R HX  91
BEEVILLE       FAIR      89  75  63 NE3       29.89R HX  98
PLEASANTON     SUNNY     90  69  50 E5        29.91R HX  94
SAN ANTONIO    MOSUNNY   86  70  58 E8        29.93R HX  90
$$

...LAREDO AREA OBSERVATIONS...

CITY           SKY/WX    TMP DP  RH WIND       PRES   REMARKS
LAREDO         SUNNY     95  66  38 E10       29.87R HX  98
COTULLA        MOSUNNY   93  67  42 E7        29.88F HX  96
DEL RIO        MOSUNNY   89  68  49 SE8       29.89S HX  93
MCALLEN        SUNNY     95  70  44 E12       29.86R HX 101
HEBBRONVILLE   SUNNY     93  66  41 E10       29.90R HX  95
$$

...OTHER TEXAS OBSERVATIONS...

CITY           SKY/WX    TMP DP  RH WIND       PRES   REMARKS
BROWNSVILLE    SUNNY     88  73  61 E13       29.87R HX  95
HOUSTON        CLOUDY    76  72  87 NE9       29.93R
COL. STATION   PTSUNNY   87  72  60 E8        29.92R HX  93
AUSTIN         MOSUNNY   89  70  53 E5        29.92R HX  94
WACO           MOSUNNY   89  71  55 E8        29.93S HX  95
FORT WORTH     MOSUNNY   89  67  47 SE8       29.94R HX  92
WICHITA FALLS  CLOUDY    74  65  73 E16G24    29.99R
LUBBOCK        MOSUNNY   87  53  31 SE13      30.01S
EL PASO        MOSUNNY   88  54  31 SE6       29.97F
$$

...MARINE OBSERVATIONS...

STATION/POSITION TIME  SKY/WX   TEMP    WIND        PRES    VSBY  WAVE   SWELL
                                AIR SEA DIR/SP/G                  HT/PER HT/PER
                 (UTC)          (F)     (DEG/KT/KT) (MB)    (MI)  (FT/S) (FT/S)
PORT ARANSAS     0000            84 87   90/ 11/ 12 1012.3R
BUOY 90 E PORT A 2350            84 85   30/ 12/ 16 1011.5F         3/ 7   2/ 7
BUOY 45 SE BAFFI 2350            85 87   70/ 10/ 14 1011.3F         2/ 7   2/ 7
BUOY 200 E PT IS 2350            86 87  340/  6/  8 1010.3R         2/ 7   2/ 7
BUOY 15 E GALVES 2350            82 85   30/ 14/ 16 1012.0R         3/ 4
$$



USA.gov is the U.S. government's official web portal to all federal, state and local government web resources and services.